Weather History for KBFM - February, 2012

Change the Weather History Date:

Saturday, February 18, 2012

  Actual Average Record
Temperature  
Mean Temperature 60 °F -  
Max Temperature 66 °F 62 °F 73 °F (2000)
Min Temperature 55 °F 43 °F 28 °F (2015)
Degree Days  
Heating Degree Days 4    
Growing Degree Days 10 (Base 50)    
Moisture  
Dew Point 57 °F    
Average Humidity 91    
Maximum Humidity 97    
Minimum Humidity 82    
Precipitation  
Precipitation 1.84 in - - ()
Sea Level Pressure  
Sea Level Pressure 29.83 in    
Wind  
Wind Speed 8 mph (NE)    
Max Wind Speed 37 mph    
Max Gust Speed 47 mph    
Visibility 6 miles    
Events Rain , Thunderstorm    
Averages and records for this station are not official NWS values.
T = Trace of Precipitation, MM = Missing Value Source: NWS Daily Summary

Daily Weather History Graph

Daily Weather History Graph

Search for Another Location

Airport or City:

Trip Planner

Search our weather history database for the weather conditions in past years. The results will help you decide how hot, cold, wet, or windy it might be!

Date:

Astronomy

Feb. 18, 2012 Rise Set
Actual Time 6:30 AM CST 5:42 PM CST
Civil Twilight 6:06 AM CST 6:06 PM CST
Nautical Twilight 5:37 AM CST 6:35 PM CST
Astronomical Twilight 5:09 AM CST 7:03 PM CST
Moon 3:59 AM CST (2/18) 2:48 PM CST (2/18)
Length of Visible Light 12h 00m
Length of Day
11h 11m
Waning Crescent, 11% of the Moon is Illuminated
Feb 18
Waning Crescent
Feb 21
New
Feb 29
First Quarter
Mar 8
Full
Mar 14
Last Quarter

Hourly Weather History & Observations

Time (CST) Temp. Dew Point Humidity Pressure Visibility Wind Dir Wind Speed Gust Speed Precip Events Conditions
12:53 AM 57.9 °F 55.9 °F 93% 30.02 in 8.0 mi Calm Calm - N/A   Scattered Clouds
1:53 AM 57.9 °F 55.9 °F 93% 30.02 in 7.0 mi Calm Calm - N/A   Scattered Clouds
2:53 AM 59.0 °F 57.0 °F 93% 30.01 in 7.0 mi Calm Calm - 0.00 in Rain Light Rain
3:53 AM 59.0 °F 57.0 °F 93% 29.99 in 6.0 mi NE 3.5 mph - 0.00 in   Mostly Cloudy
4:53 AM 60.1 °F 57.9 °F 93% 29.95 in 6.0 mi East 9.2 mph - 0.01 in Rain Light Rain
5:53 AM 60.8 °F 55.4 °F 82% 29.95 in 10.0 mi SE 5.8 mph - N/A   Scattered Clouds
6:53 AM 60.1 °F 55.9 °F 86% 29.94 in 10.0 mi SE 8.1 mph - N/A   Overcast
7:53 AM 61.0 °F 57.0 °F 87% 29.94 in 9.0 mi NE 3.5 mph - 0.01 in Rain Light Rain
8:53 AM 60.8 °F 57.2 °F 88% 29.93 in 8.0 mi NNE 4.6 mph - N/A Rain Light Rain
9:08 AM 62.6 °F 57.2 °F 82% 29.94 in 10.0 mi Calm Calm - 0.00 in   Overcast
9:53 AM 61.0 °F 57.9 °F 90% 29.90 in 9.0 mi NE 6.9 mph - 0.01 in   Overcast
10:08 AM 60.8 °F 57.2 °F 88% 29.90 in 9.0 mi NE 8.1 mph - N/A   Overcast
10:53 AM 60.8 °F 57.2 °F 88% 29.91 in 4.0 mi Calm Calm - N/A Rain Rain
11:53 AM 61.0 °F 60.1 °F 97% 29.87 in 2.5 mi East 5.8 mph - 0.02 in Rain Light Rain
12:53 PM 62.1 °F 60.1 °F 93% 29.81 in 2.0 mi East 8.1 mph - 0.07 in Rain Light Rain
1:51 PM 64.4 °F 62.6 °F 94% 29.76 in 3.0 mi SE 9.2 mph - 0.05 in Rain Light Rain
1:53 PM 64.9 °F 63.0 °F 93% 29.76 in 3.0 mi SE 8.1 mph - 0.05 in Rain Light Rain
2:53 PM 66.0 °F 64.0 °F 93% 29.68 in 7.0 mi SSE 24.2 mph 33.4 mph 0.02 in Rain Light Rain
3:22 PM 64.4 °F 62.6 °F 94% 29.69 in 9.0 mi SSE 15.0 mph 26.5 mph 0.00 in Rain Light Rain
3:53 PM 64.9 °F 63.0 °F 93% 29.73 in 2.0 mi Variable 3.5 mph - 0.02 in Rain Rain
4:00 PM 66.2 °F 64.4 °F 94% 29.74 in 6.0 mi SW 10.4 mph - 0.01 in Rain Rain
4:19 PM 62.6 °F 59.0 °F 88% 29.77 in 8.0 mi NNW 16.1 mph 23.0 mph 0.04 in Rain Rain
4:28 PM 60.8 °F 55.4 °F 82% 29.72 in 3.0 mi North 36.8 mph 47.2 mph 0.19 in Rain , Thunderstorm Thunderstorms and Rain
4:30 PM 59.0 °F 55.4 °F 88% 29.73 in 1.5 mi NNW 28.8 mph 47.2 mph 0.34 in Rain , Thunderstorm Thunderstorms and Rain
4:33 PM 57.2 °F 55.4 °F 94% 29.78 in 0.8 mi NNW 31.1 mph 47.2 mph 0.54 in Rain , Thunderstorm Thunderstorms and Rain
4:42 PM 57.2 °F 55.4 °F 94% 29.75 in 1.0 mi North 21.9 mph 38.0 mph 0.85 in Rain , Thunderstorm Thunderstorms and Rain
4:48 PM 57.2 °F 55.4 °F 94% 29.77 in 2.5 mi North 15.0 mph 33.4 mph 0.89 in Rain , Thunderstorm Thunderstorms and Rain
4:50 PM 57.2 °F 55.4 °F 94% 29.78 in 3.0 mi North 15.0 mph 29.9 mph 0.90 in Rain , Thunderstorm Heavy Thunderstorms and Rain
4:53 PM 57.0 °F 55.0 °F 93% 29.77 in 4.0 mi North 11.5 mph 26.5 mph 0.92 in Rain , Thunderstorm Heavy Thunderstorms and Rain
5:04 PM 57.2 °F 55.4 °F 94% 29.76 in 2.0 mi North 11.5 mph - 0.08 in Rain , Thunderstorm Heavy Thunderstorms and Rain
5:14 PM 57.2 °F 55.4 °F 94% 29.76 in 6.0 mi North 13.8 mph - 0.09 in Rain , Thunderstorm Heavy Thunderstorms and Rain
5:53 PM 57.0 °F 55.0 °F 93% 29.80 in 9.0 mi North 8.1 mph - 0.12 in Rain Rain
6:53 PM 57.0 °F 54.0 °F 89% 29.81 in 7.0 mi North 15.0 mph 20.7 mph 0.10 in Rain Heavy Rain
7:10 PM 57.2 °F 53.6 °F 88% 29.82 in 6.0 mi North 15.0 mph - 0.05 in Rain Rain
7:27 PM 55.4 °F 53.6 °F 94% 29.84 in 7.0 mi North 17.3 mph 24.2 mph 0.10 in Rain Heavy Rain
7:49 PM 55.4 °F 53.6 °F 94% 29.85 in 4.0 mi North 13.8 mph - 0.21 in Rain Heavy Rain
7:53 PM 55.0 °F 52.0 °F 89% 29.85 in 5.0 mi North 11.5 mph - 0.23 in Rain Heavy Rain
8:45 PM 55.4 °F 53.6 °F 94% 29.78 in 4.0 mi NNE 15.0 mph 18.4 mph 0.17 in Rain Heavy Rain
8:53 PM 55.0 °F 53.1 °F 93% 29.78 in 6.0 mi NE 13.8 mph - 0.19 in Rain Rain
9:53 PM 55.9 °F 54.0 °F 93% 29.76 in 10.0 mi ENE 9.2 mph - 0.07 in   Overcast
10:01 PM 55.4 °F 53.6 °F 94% 29.76 in 10.0 mi East 9.2 mph - N/A   Overcast
10:17 PM 57.2 °F 53.6 °F 88% 29.76 in 10.0 mi East 10.4 mph - 0.00 in Rain Light Rain
10:53 PM 57.0 °F 55.0 °F 93% 29.75 in 10.0 mi ENE 9.2 mph - 0.00 in   Overcast
11:53 PM 57.9 °F 55.0 °F 90% 29.76 in 10.0 mi East 3.5 mph - N/A   Overcast